METEOR 2-11 DEB, 60005

Orbit data source: Space-Track

METEOR 2-11 DEB, 60005 is space debris in LEO originally from a launch on Thu, 05 Jul 1984 UTC launched from the Plesetsk Missile And Space Complex (PKMTR). Debris objects in space refer to the collection of defunct objects orbiting the Earth. Examples of debris include non-operational satellites, rocket bodies, and fragments generated from explosions, collisions, or faulty payload assembly.

Loading next visibility...
Identifier
60005, 1984-072AA
Orbit
LEO
Country
Flag of CISCIS
Related business
Manufacturer
Unknown
Mission
Spacecraft
Bus & Motor
Unknown
Mass
Unknown
Launch date (UTC)
1984-07-05 (41 years ago)
Launch vehicle
Unknown
Launch site
Plesetsk Missile And Space Complex (PKMTR)
Object type
Payload
Rocket body
Debris
Shape & HBR
Unknown shape, 0.1 m
Radar Cross Section
Small (<0.1 m²)

Expand to show TLE details & history
Last TLE update: 3 days ago

TLE from 3 days ago
0 METEOR 2-11 DEB
1 60005U 84072AA  25308.92742826  .00003159  00000-0  21418-2 0  9996
2 60005  82.5225 185.1858 0023195 255.8113 104.0479 13.99789603405535
Epoch: 2025-11-04T22:15Z
TLE epoch observation values (Epoch: 2025-11-04T22:15:29.801Z)
Latitude
-0.00003°
Longitude
166.9042°
Altitude
901.579 km
Speed
7.399 km/s
True Right ascension
12h 20m 44s
True Declination
0° 00' 00"
Sunlit
Object was in daylight at epoch
Visualization orbit readout
Latitude
Unknown
Longitude
Unknown
Altitude
Unknown
Speed
Unknown
Apparent Right ascension
Unknown
Apparent Declination
Unknown
Sunlit
N/A
Visualization observer readout
Local Sidereal Time
15:15:14
Azimuth
Unknown
Elevation
Unknown
Doppler factor
Unknown
Orbital elements
Apogee altitude
908.517 km
Perigee altitude
874.793 km
Semi-major axis
7,269.792 km
Eccentricity
0.00232
Inclination
82.5225°
RAAN
185.1858°
Arg. of periapsis
255.8113°
True anomaly
104.30556°
Mean anomaly
104.0479°
Eccentric anomaly
104.17675°
Mean motion
3.50155 °/min
Orbital period
102.81 mins
BSTAR
0.0021418
Loading maneuver chart data...
Computing Atmospheric mass density...
Loading historical data...
Loading historical data...
Loading historical data...
Loading historical data...
Loading historical data...
Loading historical data...
Loading historical data...

Documentation

Showing up to 5 results
|